Reno, NV

2:38 PM PST on November 21, 2019 (GMT -0800)
Reno-Tahoe International

Weather History for KRNO - August, 2019

Change the Weather History Date:

Friday, August 2, 2019

  Actual Average Record
Temperature  
Mean Temperature 76 °F 76 °F  
Max Temperature 93 °F 93 °F 104 °F (2017)
Min Temperature 58 °F 58 °F 37 °F (1944)
Degree Days  
Heating Degree Days 0 0  
Month to date heating degree days 0 0  
Since 1 June heating degree days 15 61  
Since 1 July heating degree days 0 5  
Cooling Degree Days 11 11  
Month to date cooling degree days 23 22  
Year to date cooling degree days 614 509  
Since 1 June cooling degree days 600 472  
Growing Degree Days 26 (Base 50)    
Moisture  
Dew Point 32 °F    
Average Humidity 21    
Maximum Humidity 42    
Minimum Humidity 8    
Precipitation  
Precipitation 0.00 in 0.01 in 0.93 in (1912)
Month to date precipitation 0.00 0.02  
Year to date precipitation 8.76 4.48  
Snow  
Snow 0.00 in 0.00 in 0.00 in ()
Month to date snowfall 0.0 0.0  
Since 1 June snowfall 0.0 T  
Since 1 July snowfall 0.0 0.0  
Snow Depth 0.00 in    
Sea Level Pressure  
Sea Level Pressure 29.98 in    
Wind  
Wind Speed 3 mph ()    
Max Wind Speed 18 mph    
Max Gust Speed 25 mph    
Visibility 10.0 miles    
Events      
T = Trace of Precipitation, MM = Missing Value Source: Averaged Metar Reports

Daily Weather History Graph

Daily Weather History Graph

Search for Another Location

Airport or City:

Astronomy

Aug. 02, 2019 Rise Set
Actual Time 5:59 AM PDT 8:10 PM PDT
Civil Twilight 5:29 AM PDT 8:40 PM PDT
Nautical Twilight 4:52 AM PDT 9:17 PM PDT
Astronomical Twilight 4:12 AM PDT 9:57 PM PDT
Moon 7:44 AM PDT (8/2) 9:42 PM PDT (8/2)
Length of Visible Light 15h 10m
Length of Day
14h 11m
Waxing Crescent, 4% of the Moon is Illuminated
Aug 2
Waxing Crescent
Aug 7
First Quarter
Aug 15
Full
Aug 23
Last Quarter
Aug 30
New

Hourly Weather History & Observations

Time (PDT) Temp. Dew Point Humidity Pressure Visibility Wind Dir Wind Speed Gust Speed Precip Events Conditions
12:55 AM 71.1 °F 30.0 °F 22% 29.98 in 10.0 mi Calm Calm - N/A   Clear
1:55 AM 69.1 °F 32.0 °F 25% 29.99 in 10.0 mi Calm Calm - N/A   Partly Cloudy
2:55 AM 64.0 °F 37.0 °F 37% 29.99 in 10.0 mi South 4.6 mph - N/A   Partly Cloudy
3:55 AM 62.1 °F 36.0 °F 38% 29.99 in 10.0 mi Calm Calm - N/A   Clear
4:55 AM 60.1 °F 37.0 °F 42% 30.01 in 10.0 mi Calm Calm - N/A   Clear
5:55 AM 59.0 °F 36.0 °F 42% 30.04 in 10.0 mi South 4.6 mph - N/A   Clear
6:55 AM 62.1 °F 30.0 °F 30% 30.05 in 10.0 mi West 3.5 mph - N/A   Clear
7:55 AM 66.0 °F 32.0 °F 28% 30.06 in 10.0 mi WSW 3.5 mph - N/A   Clear
8:55 AM 70.0 °F 32.0 °F 25% 30.05 in 10.0 mi Calm Calm - N/A   Clear
9:55 AM 75.9 °F 28.9 °F 18% 30.04 in 10.0 mi NNW 3.5 mph - N/A   Clear
10:55 AM 80.1 °F 28.9 °F 15% 30.03 in 10.0 mi Calm Calm - N/A   Clear
11:55 AM 84.0 °F 26.1 °F 12% 30.01 in 10.0 mi NNE 3.5 mph - N/A   Clear
12:55 PM 86.0 °F 27.0 °F 12% 29.99 in 10.0 mi East 3.5 mph - N/A   Clear
1:55 PM 89.1 °F 30.0 °F 12% 29.97 in 10.0 mi Calm Calm - N/A   Partly Cloudy
2:55 PM 90.0 °F 26.1 °F 10% 29.96 in 10.0 mi SSE 5.8 mph - N/A   Partly Cloudy
3:55 PM 91.0 °F 24.1 °F 9% 29.94 in 10.0 mi South 8.1 mph - N/A   Partly Cloudy
4:55 PM 93.0 °F 24.1 °F 8% 29.92 in 10.0 mi SSW 5.8 mph - N/A   Partly Cloudy
5:55 PM 93.9 °F 25.0 °F 8% 29.91 in 10.0 mi NNW 13.8 mph - N/A   Partly Cloudy
6:55 PM 91.0 °F 30.9 °F 12% 29.91 in 10.0 mi NW 15.0 mph - N/A   Clear
7:55 PM 86.0 °F 37.0 °F 18% 29.93 in 10.0 mi NW 13.8 mph - N/A   Clear
8:55 PM 82.9 °F 37.9 °F 20% 29.95 in 10.0 mi WNW 8.1 mph - N/A   Clear
9:55 PM 80.1 °F 37.0 °F 21% 29.97 in 10.0 mi NNW 10.4 mph - N/A   Clear
10:55 PM 77.0 °F 34.0 °F 21% 29.97 in 10.0 mi North 8.1 mph - N/A   Clear
11:55 PM 75.0 °F 39.0 °F 27% 29.97 in 10.0 mi NNW 5.8 mph - N/A   Clear